Location: Derby
(52.9213°N, 1.4761°W)
Time: 02:12:00
(UTC+01:00)

A-11 Canister half - Pass Details

Date: 21 May 2025
Orbit: 1524 x 1684 km, 47.3° (Epoch: 12 June)

Event Time Altitude Azimuth Distance (km) Brightness Sun altitude
Rises 23:33:07 0° 274° (W) 4,752 11.9 -14.2°
Reaches altitude 10° 23:36:12 10° 270° (W) 3,787 11.3 -14.3°
Maximum altitude 23:45:33 58° 196° (SSW) 1,853 9.1 -14.8°
Drops below altitude 10° 23:55:12 10° 121° (ESE) 3,903 10.7 -15.2°
Enters shadow 23:57:59 - 118° (ESE) 4,760 11.2 -15.4°
